Starlink 11419

operational
NORAD ID: 62883 Int'l Des: 2025-024 Owner: SPXS Country: US Constellation: starlink
LEOCIRCULAR

About Starlink 11419

Description loading...

Live Position

Loading 3D Globe...

Upcoming Passes

Altitude History

Altitude vs Time

uPlot chart will show altitude changes over time

Two-Line Element Set

1 62883U 25024E 25354.12802338 .00155481 00000-0 11857-2 0 9994
2 62883 42.9998 301.0258 0000958 222.9640 137.1153 15.70980559 50955
Epoch: Dec 20, 2025 • Age: 9 hours

Current Status

Altitude 355.6 km
Velocity 7.70 km/s
Sub-Earth Point 4.42°N, 30.29°E
Launch Date Feb 4, 2025
Age 0.8 years
Type internet

Technical Details

Classification Payload
Mass 960.00 kg
Dry Mass 910.00 kg
Total Mass 960.00 kg
Length 0.30 m
Diameter 4.10 m
Span 29.00 m
Shape Box + pan
Manufacturer SPXS
Bus Type Starlink V2MD
Phase Status In Orbit
Owner/State SPXS/US

Large Constellations

Loading constellations...